| time (UTC) | temp F | wind direction | speed MPH | gust MPH | rain 1hr in | rain 24hr in | rain mn in | humidity % | barometer mb |
| 20260831214019 | 69 | 70 | 12.0 | 19.0 | 0.00 | 0.00 | 0.00 | 98 | 901.5 |
| 20260831214017 | 69 | 57 | 12.0 | 19.0 | 0.00 | 0.00 | 0.00 | 98 | 901.5 |
| 20260831213517 | 69 | 28 | 11.0 | 15.0 | 0.00 | 0.00 | 0.00 | 98 | 901.5 |
| 20260831213418 | 69 | 49 | 10.0 | 15.0 | 0.00 | 0.00 | 0.00 | 98 | 901.5 |
| 20260831213017 | 69 | 36 | 10.0 | 18.0 | 0.01 | 0.01 | 0.00 | 98 | 901.4 |
| 20260831212818 | 69 | 55 | 12.0 | 18.0 | 0.01 | 0.01 | 0.00 | 98 | 901.4 |
| 20260831212517 | 69 | 58 | 10.0 | 17.0 | 0.01 | 0.01 | 0.00 | 98 | 901.3 |
| 20260831212218 | 69 | 64 | 9.0 | 17.0 | 0.01 | 0.01 | 0.00 | 98 | 901.3 |
| 20260831212018 | 69 | 50 | 10.0 | 18.0 | 0.01 | 0.01 | 0.00 | 98 | 901.3 |
| 20260831211517 | 69 | 35 | 10.0 | 18.0 | 0.01 | 0.01 | 0.00 | 98 | 901.3 |
| 20260831211019 | 69 | 52 | 10.0 | 16.0 | 0.00 | 0.00 | 0.00 | 98 | 901.3 |
| 20260831211017 | 69 | 45 | 10.0 | 16.0 | 0.00 | 0.00 | 0.00 | 98 | 901.2 |
| 20260831210517 | 69 | 46 | 10.0 | 16.0 | 0.00 | 0.00 | 0.00 | 98 | 901.3 |
| 20260831210418 | 69 | 39 | 10.0 | 16.0 | 0.00 | 0.00 | 0.00 | 98 | 901.2 |
| 20260831210017 | 69 | 53 | 10.0 | 18.0 | 0.00 | 0.00 | 0.00 | 98 | 901.2 |
| 20260831205818 | 69 | 61 | 11.0 | 18.0 | 0.00 | 0.00 | 0.00 | 98 | 901.3 |
| 20260831205517 | 69 | 71 | 13.0 | 18.0 | 0.00 | 0.00 | 0.00 | 98 | 901.2 |
| 20260831205218 | 69 | 37 | 10.0 | 19.0 | 0.00 | 0.00 | 0.00 | 98 | 901.1 |
| 20260831205017 | 69 | 65 | 10.0 | 19.0 | 0.00 | 0.00 | 0.00 | 98 | 901.2 |
| 20260831204618 | 69 | 23 | 11.0 | 19.0 | 0.00 | 0.00 | 0.00 | 98 | 901.1 |
| 20260831204517 | 69 | 36 | 12.0 | 19.0 | 0.00 | 0.00 | 0.00 | 98 | 901.2 |
| 20260831204018 | 69 | 56 | 10.0 | 17.0 | 0.00 | 0.00 | 0.00 | 98 | 901.3 |
| 20260831203517 | 69 | 56 | 10.0 | 18.0 | 0.00 | 0.00 | 0.00 | 98 | 901.3 |
| 20260831203418 | 69 | 64 | 10.0 | 18.0 | 0.00 | 0.00 | 0.00 | 98 | 901.3 |
| 20260831203017 | 69 | 33 | 10.0 | 18.0 | 0.00 | 0.00 | 0.00 | 98 | 901.3 |
| 20260831202818 | 69 | 44 | 10.0 | 18.0 | 0.00 | 0.00 | 0.00 | 98 | 901.3 |
| 20260831202517 | 69 | 62 | 12.0 | 16.0 | 0.00 | 0.00 | 0.00 | 98 | 901.3 |
| 20260831202218 | 69 | 90 | 10.0 | 19.0 | 0.00 | 0.00 | 0.00 | 98 | 901.2 |
| 20260831202016 | 69 | 21 | 10.0 | 19.0 | 0.00 | 0.00 | 0.00 | 98 | 901.2 |
| 20260831201618 | 69 | 68 | 11.0 | 19.0 | 0.00 | 0.00 | 0.00 | 98 | 901.3 |
| 20260831201516 | 69 | 58 | 12.0 | 19.0 | 0.00 | 0.00 | 0.00 | 98 | 901.3 |
| 20260831201018 | 69 | 51 | 13.0 | 18.0 | 0.00 | 0.00 | 0.00 | 98 | 901.3 |
| 20260831201016 | 69 | 50 | 13.0 | 18.0 | 0.00 | 0.00 | 0.00 | 98 | 901.3 |
| 20260831200516 | 69 | 61 | 11.0 | 17.0 | 0.00 | 0.00 | 0.00 | 98 | 901.4 |
| 20260831200418 | 69 | 62 | 11.0 | 17.0 | 0.00 | 0.00 | 0.00 | 98 | 901.5 |
| 20260831195818 | 69 | 42 | 11.0 | 17.0 | 0.00 | 0.00 | 0.00 | 98 | 901.5 |
| 20260831195516 | 69 | 18 | 10.0 | 14.0 | 0.00 | 0.00 | 0.00 | 98 | 901.5 |
| 20260831194617 | 69 | 65 | 15.0 | 23.0 | 0.02 | 0.02 | 0.00 | 98 | 901.4 |
| 20260831194018 | 69 | 66 | 15.0 | 23.0 | 0.02 | 0.02 | 0.00 | 98 | 901.5 |
| 20260831194016 | 69 | 55 | 15.0 | 23.0 | 0.02 | 0.02 | 0.00 | 98 | 901.5 |
| 20260831193516 | 69 | 49 | 13.0 | 19.0 | 0.01 | 0.01 | 0.00 | 98 | 901.5 |
| 20260831193418 | 69 | 42 | 12.0 | 19.0 | 0.01 | 0.01 | 0.00 | 98 | 901.5 |
| 20260831193016 | 69 | 52 | 14.0 | 19.0 | 0.01 | 0.01 | 0.00 | 98 | 901.4 |
| 20260831192818 | 69 | 49 | 13.0 | 19.0 | 0.01 | 0.01 | 0.00 | 98 | 901.5 |
| 20260831192516 | 69 | 66 | 11.0 | 18.0 | 0.01 | 0.01 | 0.00 | 98 | 901.6 |
| 20260831192217 | 69 | 54 | 12.0 | 18.0 | 0.01 | 0.01 | 0.00 | 98 | 901.5 |
| 20260831192016 | 69 | 27 | 12.0 | 17.0 | 0.00 | 0.00 | 0.00 | 98 | 901.5 |
| 20260831191617 | 69 | 44 | 10.0 | 17.0 | 0.00 | 0.00 | 0.00 | 98 | 901.7 |
| 20260831191516 | 69 | 57 | 11.0 | 19.0 | 0.00 | 0.00 | 0.00 | 98 | 901.7 |
| 20260831191018 | 69 | 58 | 10.0 | 19.0 | 0.00 | 0.00 | 0.00 | 98 | 901.7 |
| 20260831191016 | 69 | 79 | 10.0 | 19.0 | 0.00 | 0.00 | 0.00 | 98 | 901.7 |
| 20260831190516 | 69 | 49 | 12.0 | 18.0 | 0.00 | 0.00 | 0.00 | 98 | 901.6 |
| 20260831190417 | 69 | 49 | 11.0 | 17.0 | 0.00 | 0.00 | 0.00 | 98 | 901.7 |
| 20260831190016 | 69 | 58 | 12.0 | 18.0 | 0.00 | 0.00 | 0.00 | 98 | 901.7 |
| 20260831185817 | 69 | 45 | 12.0 | 17.0 | 0.00 | 0.00 | 0.00 | 98 | 901.6 |
| 20260831185516 | 69 | 51 | 10.0 | 18.0 | 0.00 | 0.00 | 0.00 | 98 | 901.7 |
| 20260831185016 | 69 | 42 | 12.0 | 18.0 | 0.00 | 0.00 | 0.00 | 98 | 901.7 |
| 20260831184617 | 69 | 53 | 13.0 | 19.0 | 0.00 | 0.00 | 0.00 | 98 | 901.7 |
| 20260831184516 | 69 | 54 | 13.0 | 19.0 | 0.00 | 0.00 | 0.00 | 98 | 901.6 |
| 20260831184018 | 69 | 42 | 2.0 | 19.0 | 0.00 | 0.00 | 0.00 | 99 | 901.7 |
| 20260831184016 | 69 | 50 | 2.0 | 19.0 | 0.00 | 0.00 | 0.00 | 99 | 901.6 |
| 20260831183516 | 69 | 66 | 14.0 | 21.0 | 0.00 | 0.00 | 0.00 | 98 | 901.8 |
| 20260831183417 | 69 | 50 | 14.0 | 21.0 | 0.00 | 0.00 | 0.00 | 98 | 901.7 |
| 20260831183016 | 69 | 59 | 15.0 | 21.0 | 0.00 | 0.00 | 0.00 | 98 | 901.6 |
| 20260831182817 | 69 | 50 | 7.0 | 20.0 | 0.00 | 0.00 | 0.00 | 99 | 901.5 |
| 20260831182516 | 69 | 38 | 16.0 | 22.0 | 0.00 | 0.00 | 0.00 | 98 | 901.6 |
| 20260831182217 | 69 | 46 | 14.0 | 22.0 | 0.00 | 0.00 | 0.00 | 98 | 901.7 |
| 20260831182016 | 69 | 54 | 16.0 | 22.0 | 0.00 | 0.00 | 0.00 | 98 | 901.8 |
| 20260831181617 | 69 | 55 | 16.0 | 21.0 | 0.00 | 0.00 | 0.00 | 98 | 901.8 |
| 20260831181516 | 69 | 36 | 16.0 | 21.0 | 0.00 | 0.00 | 0.00 | 98 | 901.7 |
| 20260831181017 | 69 | 48 | 15.0 | 20.0 | 0.00 | 0.00 | 0.00 | 98 | 901.9 |
| 20260831180516 | 69 | 50 | 15.0 | 20.0 | 0.00 | 0.00 | 0.00 | 98 | 902.0 |
| 20260831180417 | 69 | 48 | 14.0 | 20.0 | 0.00 | 0.00 | 0.00 | 98 | 901.9 |
| 20260831180016 | 69 | 41 | 15.0 | 20.0 | 0.00 | 0.00 | 0.00 | 98 | 902.0 |
| 20260831175817 | 69 | 63 | 14.0 | 20.0 | 0.00 | 0.00 | 0.00 | 98 | 902.0 |
| 20260831175516 | 69 | 64 | 15.0 | 20.0 | 0.00 | 0.00 | 0.00 | 98 | 902.1 |
| 20260831175217 | 69 | 45 | 14.0 | 21.0 | 0.00 | 0.00 | 0.00 | 98 | 902.1 |
| 20260831175016 | 69 | 47 | 14.0 | 21.0 | 0.00 | 0.00 | 0.00 | 98 | 902.2 |
| 20260831174617 | 69 | 58 | 12.0 | 21.0 | 0.00 | 0.00 | 0.00 | 98 | 902.2 |
| 20260831174516 | 69 | 53 | 13.0 | 21.0 | 0.00 | 0.00 | 0.00 | 98 | 902.1 |
| 20260831174017 | 69 | 50 | 1.0 | 13.0 | 0.00 | 0.00 | 0.00 | 98 | 902.3 |
| 20260831174015 | 69 | 64 | 1.0 | 13.0 | 0.00 | 0.00 | 0.00 | 98 | 902.3 |
| 20260831173515 | 69 | 54 | 13.0 | 20.0 | 0.00 | 0.00 | 0.00 | 98 | 902.3 |
| 20260831173417 | 69 | 36 | 13.0 | 20.0 | 0.00 | 0.00 | 0.00 | 98 | 902.2 |
| 20260831172817 | 69 | 68 | 11.0 | 20.0 | 0.00 | 0.00 | 0.00 | 98 | 902.3 |
| 20260831172515 | 69 | 59 | 14.0 | 20.0 | 0.00 | 0.00 | 0.00 | 98 | 902.4 |
| 20260831172015 | 69 | 60 | 12.0 | 19.0 | 0.00 | 0.00 | 0.00 | 98 | 902.4 |
| 20260831171617 | 69 | 58 | 13.0 | 18.0 | 0.00 | 0.00 | 0.00 | 98 | 902.4 |
| 20260831171516 | 69 | 35 | 12.0 | 18.0 | 0.00 | 0.00 | 0.00 | 98 | 902.3 |
| 20260831171017 | 69 | 48 | 12.0 | 16.0 | 0.00 | 0.00 | 0.00 | 98 | 902.4 |
| 20260831171015 | 69 | 50 | 12.0 | 16.0 | 0.00 | 0.00 | 0.00 | 98 | 902.5 |
| 20260831170515 | 69 | 40 | 11.0 | 15.0 | 0.00 | 0.00 | 0.00 | 98 | 902.5 |
| 20260831170416 | 69 | 40 | 11.0 | 15.0 | 0.00 | 0.00 | 0.00 | 98 | 902.5 |
| 20260831170015 | 69 | 48 | 10.0 | 17.0 | 0.00 | 0.00 | 0.00 | 98 | 902.6 |
| 20260831165816 | 69 | 27 | 10.0 | 17.0 | 0.00 | 0.00 | 0.00 | 98 | 902.6 |
| 20260831165516 | 69 | 41 | 10.0 | 17.0 | 0.00 | 0.00 | 0.00 | 98 | 902.5 |
| 20260831164616 | 69 | 41 | 11.0 | 17.0 | 0.00 | 0.00 | 0.00 | 98 | 902.6 |
| 20260831164516 | 69 | 52 | 11.0 | 17.0 | 0.00 | 0.00 | 0.00 | 98 | 902.6 |
| 20260831164017 | 69 | 37 | 13.0 | 17.0 | 0.00 | 0.00 | 0.00 | 98 | 902.6 |
| 20260831164015 | 69 | 42 | 13.0 | 17.0 | 0.00 | 0.00 | 0.00 | 98 | 902.7 |
| 20260831163515 | 69 | 47 | 11.0 | 15.0 | 0.00 | 0.00 | 0.00 | 98 | 902.7 |
| 20260831163416 | 69 | 26 | 11.0 | 15.0 | 0.00 | 0.00 | 0.00 | 98 | 902.7 |
| 20260831163015 | 69 | 70 | 10.0 | 15.0 | 0.00 | 0.00 | 0.00 | 98 | 902.8 |
| 20260831162816 | 69 | 35 | 10.0 | 15.0 | 0.00 | 0.00 | 0.00 | 98 | 902.8 |
| 20260831162515 | 69 | 57 | 4.0 | 11.0 | 0.00 | 0.00 | 0.00 | 98 | 902.9 |
| 20260831162216 | 69 | 75 | 6.0 | 9.0 | 0.00 | 0.00 | 0.00 | 98 | 903.0 |
| 20260831162015 | 69 | 69 | 1.0 | 8.0 | 0.00 | 0.00 | 0.00 | 99 | 903.0 |
| 20260831161616 | 69 | 53 | 7.0 | 16.0 | 0.00 | 0.00 | 0.00 | 98 | 903.0 |
| 20260831161516 | 69 | 40 | 9.0 | 16.0 | 0.00 | 0.00 | 0.00 | 98 | 903.1 |
| 20260831161016 | 69 | 79 | 12.0 | 16.0 | 0.00 | 0.00 | 0.00 | 98 | 903.1 |
| 20260831160515 | 69 | 51 | 10.0 | 16.0 | 0.00 | 0.00 | 0.00 | 99 | 903.1 |
| 20260831160416 | 69 | 42 | 5.0 | 16.0 | 0.00 | 0.00 | 0.00 | 99 | 903.1 |
| 20260831154616 | 69 | 54 | 13.0 | 17.0 | 0.00 | 0.00 | 0.00 | 98 | 903.1 |
| 20260831154516 | 69 | 63 | 12.0 | 17.0 | 0.00 | 0.00 | 0.00 | 98 | 903.1 |
| 20260831154016 | 69 | 66 | 12.0 | 16.0 | 0.00 | 0.00 | 0.00 | 98 | 903.1 |
| 20260831154014 | 69 | 40 | 12.0 | 16.0 | 0.00 | 0.00 | 0.00 | 98 | 903.1 |
| 20260831153514 | 69 | 44 | 9.0 | 12.0 | 0.00 | 0.00 | 0.00 | 98 | 903.2 |
| 20260831153014 | 69 | 50 | 7.0 | 11.0 | 0.00 | 0.00 | 0.00 | 98 | 903.3 |
| 20260831152816 | 69 | 34 | 8.0 | 11.0 | 0.00 | 0.00 | 0.00 | 98 | 903.4 |
| 20260831152514 | 69 | 42 | 7.0 | 11.0 | 0.00 | 0.00 | 0.00 | 98 | 903.4 |
| 20260831152215 | 69 | 33 | 6.0 | 11.0 | 0.00 | 0.00 | 0.00 | 98 | 903.4 |
| 20260831152014 | 69 | 12 | 7.0 | 11.0 | 0.00 | 0.00 | 0.00 | 98 | 903.4 |
| 20260831151615 | 69 | 27 | 5.0 | 10.0 | 0.00 | 0.00 | 0.00 | 98 | 903.5 |
| 20260831151516 | 69 | 37 | 5.0 | 10.0 | 0.00 | 0.00 | 0.00 | 98 | 903.5 |
| 20260831151016 | 69 | 48 | 7.0 | 10.0 | 0.00 | 0.00 | 0.00 | 98 | 903.5 |
| 20260831151014 | 69 | 25 | 7.0 | 10.0 | 0.00 | 0.00 | 0.00 | 98 | 903.5 |
| 20260831150514 | 69 | 360 | 6.0 | 10.0 | 0.00 | 0.00 | 0.00 | 98 | 903.5 |
| 20260831150415 | 69 | 53 | 6.0 | 10.0 | 0.00 | 0.00 | 0.00 | 98 | 903.5 |
| 20260831150014 | 69 | 56 | 6.0 | 10.0 | 0.00 | 0.00 | 0.00 | 98 | 903.5 |
| 20260831145815 | 69 | 59 | 5.0 | 10.0 | 0.00 | 0.00 | 0.00 | 98 | 903.5 |
| 20260831145514 | 69 | 22 | 4.0 | 9.0 | 0.00 | 0.00 | 0.00 | 98 | 903.5 |
| 20260831145215 | 69 | 21 | 5.0 | 9.0 | 0.00 | 0.00 | 0.00 | 99 | 903.5 |
| 20260831145014 | 69 | 42 | 3.0 | 9.0 | 0.00 | 0.00 | 0.00 | 99 | 903.5 |
| 20260831143014 | 69 | 45 | 9.0 | 14.0 | 0.00 | 0.00 | 0.00 | 98 | 903.2 |
| 20260831142815 | 69 | 32 | 9.0 | 13.0 | 0.00 | 0.00 | 0.00 | 98 | 903.2 |
| 20260831142215 | 69 | 26 | 9.0 | 16.0 | 0.00 | 0.00 | 0.00 | 98 | 903.1 |
| 20260831142014 | 69 | 51 | 6.0 | 16.0 | 0.00 | 0.00 | 0.00 | 98 | 903.2 |
| 20260831141615 | 69 | 55 | 4.0 | 11.0 | 0.00 | 0.00 | 0.00 | 98 | 903.1 |
| 20260831141514 | 69 | 46 | 0.0 | 0.0 | 0.00 | 0.00 | 0.00 | 98 | 903.1 |
| 20260831141015 | 69 | 55 | 12.0 | 17.0 | 0.00 | 0.00 | 0.00 | 98 | 903.1 |
| 20260831140513 | 69 | 54 | 12.0 | 17.0 | 0.00 | 0.00 | 0.00 | 98 | 903.1 |
| 20260831140415 | 69 | 53 | 13.0 | 17.0 | 0.00 | 0.00 | 0.00 | 98 | 903.2 |
| 20260831140014 | 69 | 51 | 9.0 | 18.0 | 0.00 | 0.00 | 0.00 | 98 | 903.2 |
| 20260831135815 | 69 | 45 | 12.0 | 16.0 | 0.00 | 0.00 | 0.00 | 98 | 903.1 |
| 20260831135513 | 69 | 40 | 12.0 | 16.0 | 0.00 | 0.00 | 0.00 | 98 | 903.1 |
| 20260831135215 | 69 | 48 | 12.0 | 16.0 | 0.00 | 0.00 | 0.00 | 98 | 903.2 |
| 20260831135013 | 69 | 64 | 0.0 | 0.0 | 0.00 | 0.00 | 0.00 | 98 | 903.2 |
| 20260831134514 | 69 | 69 | 12.0 | 18.0 | 0.00 | 0.00 | 0.00 | 98 | 903.2 |
| 20260831134015 | 69 | 62 | 12.0 | 16.0 | 0.00 | 0.00 | 0.00 | 98 | 903.2 |
| 20260831134013 | 69 | 51 | 12.0 | 16.0 | 0.00 | 0.00 | 0.00 | 98 | 903.1 |
| 20260831133513 | 69 | 55 | 12.0 | 19.0 | 0.00 | 0.00 | 0.00 | 98 | 903.3 |
| 20260831133415 | 69 | 44 | 12.0 | 19.0 | 0.00 | 0.00 | 0.00 | 98 | 903.3 |
| 20260831133014 | 69 | 34 | 12.0 | 19.0 | 0.00 | 0.00 | 0.00 | 98 | 903.1 |
| 20260831132815 | 69 | 57 | 10.0 | 17.0 | 0.00 | 0.00 | 0.00 | 98 | 903.3 |
| 20260831132513 | 69 | 28 | 10.0 | 17.0 | 0.00 | 0.00 | 0.00 | 98 | 903.1 |
| 20260831132215 | 69 | 43 | 11.0 | 17.0 | 0.00 | 0.00 | 0.00 | 98 | 903.1 |
| 20260831132013 | 69 | 38 | 10.0 | 14.0 | 0.00 | 0.00 | 0.00 | 98 | 903.1 |
| 20260831131615 | 69 | 29 | 9.0 | 14.0 | 0.00 | 0.00 | 0.00 | 98 | 903.2 |
| 20260831131513 | 70 | 30 | 9.0 | 13.0 | 0.00 | 0.00 | 0.00 | 98 | 903.1 |
| 20260831131015 | 70 | 53 | 8.0 | 10.0 | 0.01 | 0.01 | 0.00 | 98 | 903.2 |
| 20260831130513 | 70 | 16 | 7.0 | 10.0 | 0.00 | 0.00 | 0.00 | 98 | 903.2 |
| 20260831130414 | 70 | 31 | 7.0 | 10.0 | 0.00 | 0.00 | 0.00 | 98 | 903.2 |
| 20260831130013 | 70 | 31 | 6.0 | 10.0 | 0.00 | 0.00 | 0.00 | 98 | 903.3 |
| 20260831125814 | 70 | 10 | 5.0 | 9.0 | 0.00 | 0.00 | 0.00 | 98 | 903.2 |
| 20260831125513 | 70 | 23 | 2.0 | 6.0 | 0.00 | 0.00 | 0.00 | 98 | 903.2 |
| 20260831125214 | 70 | 38 | 2.0 | 7.0 | 0.00 | 0.00 | 0.00 | 98 | 903.2 |
| 20260831125013 | 70 | 360 | 6.0 | 10.0 | 0.00 | 0.00 | 0.00 | 98 | 903.2 |
| 20260831124614 | 70 | 29 | 0.0 | 6.0 | 0.00 | 0.00 | 0.00 | 98 | 903.2 |
| 20260831124513 | 70 | 31 | 4.0 | 9.0 | 0.01 | 0.01 | 0.00 | 98 | 903.2 |
| 20260831124015 | 70 | 28 | 1.0 | 6.0 | 0.00 | 0.00 | 0.00 | 98 | 903.2 |
| 20260831124013 | 70 | 27 | 1.0 | 6.0 | 0.00 | 0.00 | 0.00 | 98 | 903.2 |
| 20260831123414 | 70 | 11 | 1.0 | 3.0 | 0.00 | 0.00 | 0.00 | 98 | 903.2 |
| 20260831123014 | 70 | 49 | 3.0 | 5.0 | 0.00 | 0.00 | 0.00 | 98 | 903.2 |
| 20260831122513 | 70 | 71 | 2.0 | 8.0 | 0.00 | 0.00 | 0.00 | 98 | 903.2 |
| 20260831122214 | 70 | 24 | 4.0 | 8.0 | 0.00 | 0.00 | 0.00 | 98 | 903.2 |
| 20260831122013 | 70 | 38 | 4.0 | 8.0 | 0.00 | 0.00 | 0.00 | 98 | 903.2 |
| 20260831121614 | 70 | 31 | 4.0 | 7.0 | 0.00 | 0.00 | 0.00 | 98 | 903.2 |
| 20260831121513 | 70 | 52 | 4.0 | 7.0 | 0.00 | 0.00 | 0.00 | 98 | 903.2 |
| 20260831121014 | 70 | 24 | 3.0 | 6.0 | 0.00 | 0.00 | 0.00 | 98 | 903.1 |
| 20260831120513 | 70 | 51 | 0.0 | 5.0 | 0.00 | 0.00 | 0.00 | 98 | 903.1 |
| 20260831120414 | 70 | 72 | 4.0 | 7.0 | 0.00 | 0.00 | 0.00 | 98 | 903.1 |
| 20260831115814 | 70 | 35 | 0.0 | 5.0 | 0.00 | 0.00 | 0.00 | 98 | 903.1 |
| 20260831115214 | 70 | 8 | 5.0 | 7.0 | 0.00 | 0.00 | 0.00 | 98 | 903.1 |
| 20260831115013 | 70 | 11 | 6.0 | 7.0 | 0.00 | 0.00 | 0.00 | 98 | 903.1 |
| 20260831114614 | 70 | 350 | 6.0 | 7.0 | 0.00 | 0.00 | 0.00 | 98 | 903.0 |
| 20260831114512 | 70 | 23 | 5.0 | 7.0 | 0.00 | 0.00 | 0.00 | 98 | 903.0 |
| 20260831114014 | 70 | 7 | 0.0 | 4.0 | 0.00 | 0.00 | 0.00 | 98 | 903.1 |
| 20260831114012 | 70 | 6 | 0.0 | 4.0 | 0.00 | 0.00 | 0.00 | 98 | 903.1 |
| 20260831113513 | 70 | 231 | 0.0 | 1.0 | 0.00 | 0.00 | 0.00 | 98 | 903.1 |
| 20260831113414 | 70 | 51 | 0.0 | 1.0 | 0.00 | 0.00 | 0.00 | 98 | 903.1 |
| 20260831113012 | 70 | 83 | 1.0 | 1.0 | 0.00 | 0.00 | 0.00 | 98 | 903.1 |
| 20260831112814 | 70 | 74 | 0.0 | 1.0 | 0.00 | 0.00 | 0.00 | 98 | 903.0 |
| 20260831112512 | 70 | 315 | 1.0 | 3.0 | 0.00 | 0.00 | 0.00 | 97 | 903.0 |
| 20260831112214 | 70 | 342 | 1.0 | 3.0 | 0.00 | 0.00 | 0.00 | 97 | 902.9 |
| 20260831112012 | 70 | 328 | 1.0 | 3.0 | 0.00 | 0.00 | 0.00 | 97 | 902.9 |
| 20260831111614 | 70 | 314 | 0.0 | 2.0 | 0.00 | 0.00 | 0.00 | 97 | 902.7 |
| 20260831111512 | 70 | 322 | 1.0 | 3.0 | 0.00 | 0.00 | 0.00 | 97 | 902.8 |
| 20260831111012 | 70 | 360 | 0.0 | 1.0 | 0.00 | 0.00 | 0.00 | 97 | 902.6 |
| 20260831110512 | 70 | 288 | 1.0 | 4.0 | 0.00 | 0.00 | 0.00 | 97 | 902.5 |
| 20260831110413 | 70 | 287 | 1.0 | 4.0 | 0.00 | 0.00 | 0.00 | 97 | 902.6 |
| 20260831110012 | 70 | 279 | 2.0 | 4.0 | 0.00 | 0.00 | 0.00 | 98 | 902.6 |
| 20260831105813 | 70 | 346 | 3.0 | 4.0 | 0.00 | 0.00 | 0.00 | 98 | 902.6 |
| 20260831105515 | 70 | 341 | 3.0 | 4.0 | 0.00 | 0.00 | 0.00 | 98 | 902.5 |
| 20260831105214 | 70 | 329 | 3.0 | 4.0 | 0.00 | 0.00 | 0.00 | 98 | 902.6 |
| 20260831105012 | 70 | 316 | 1.0 | 4.0 | 0.00 | 0.00 | 0.00 | 98 | 902.6 |
| 20260831104613 | 70 | 339 | 1.0 | 4.0 | 0.00 | 0.00 | 0.00 | 98 | 902.5 |
| 20260831104512 | 70 | 30 | 1.0 | 4.0 | 0.00 | 0.00 | 0.00 | 98 | 902.5 |
| 20260831104014 | 70 | 304 | 2.0 | 4.0 | 0.00 | 0.00 | 0.00 | 98 | 902.5 |
| 20260831104012 | 70 | 313 | 2.0 | 4.0 | 0.00 | 0.00 | 0.00 | 98 | 902.5 |
| 20260831103512 | 70 | 354 | 2.0 | 4.0 | 0.00 | 0.00 | 0.00 | 98 | 902.4 |
| 20260831103413 | 70 | 309 | 1.0 | 4.0 | 0.00 | 0.00 | 0.00 | 98 | 902.4 |
| 20260831103012 | 70 | 21 | 1.0 | 2.0 | 0.00 | 0.00 | 0.00 | 98 | 902.4 |
| 20260831102815 | 70 | 254 | 1.0 | 3.0 | 0.00 | 0.00 | 0.00 | 98 | 902.4 |
| 20260831102512 | 70 | 360 | 0.0 | 3.0 | 0.00 | 0.00 | 0.00 | 98 | 902.3 |
| 20260831102213 | 70 | 319 | 1.0 | 3.0 | 0.00 | 0.00 | 0.00 | 98 | 902.4 |
| 20260831102012 | 70 | 266 | 1.0 | 4.0 | 0.00 | 0.00 | 0.00 | 98 | 902.3 |
| 20260831101613 | 70 | 351 | 2.0 | 4.0 | 0.00 | 0.00 | 0.00 | 98 | 902.3 |
| 20260831101512 | 70 | 358 | 2.0 | 4.0 | 0.00 | 0.00 | 0.00 | 98 | 902.3 |
| 20260831101012 | 70 | 357 | 2.0 | 3.0 | 0.00 | 0.00 | 0.00 | 98 | 902.3 |
| 20260831100512 | 70 | 288 | 0.0 | 1.0 | 0.00 | 0.00 | 0.00 | 98 | 902.2 |
| 20260831100012 | 70 | 212 | 1.0 | 1.0 | 0.00 | 0.00 | 0.00 | 99 | 902.1 |
| 20260831095813 | 70 | 232 | 0.0 | 1.0 | 0.00 | 0.00 | 0.00 | 99 | 902.1 |
| 20260831092512 | 70 | 195 | 3.0 | 6.0 | 0.00 | 0.00 | 0.00 | 98 | 902.0 |
| 20260831091511 | 70 | 142 | 4.0 | 6.0 | 0.01 | 0.01 | 0.00 | 98 | 902.0 |
| 20260831091013 | 70 | 164 | 3.0 | 6.0 | 0.00 | 0.00 | 0.00 | 98 | 902.0 |
| 20260831091011 | 70 | 163 | 3.0 | 6.0 | 0.00 | 0.00 | 0.00 | 98 | 902.0 |
| 20260831090511 | 70 | 211 | 0.0 | 4.0 | 0.00 | 0.00 | 0.00 | 98 | 902.0 |
| 20260831090413 | 71 | 154 | 4.0 | 7.0 | 0.00 | 0.00 | 0.00 | 98 | 902.0 |
| 20260831090011 | 71 | 132 | 3.0 | 6.0 | 0.00 | 0.00 | 0.00 | 98 | 902.0 |
| 20260831085813 | 71 | 182 | 2.0 | 6.0 | 0.00 | 0.00 | 0.00 | 98 | 901.9 |
| 20260831085511 | 71 | 148 | 4.0 | 6.0 | 0.00 | 0.00 | 0.00 | 97 | 901.9 |
| 20260831085212 | 71 | 173 | 3.0 | 6.0 | 0.00 | 0.00 | 0.00 | 98 | 901.8 |
| 20260831085011 | 71 | 169 | 2.0 | 5.0 | 0.00 | 0.00 | 0.00 | 98 | 901.9 |
| 20260831084612 | 71 | 156 | 2.0 | 3.0 | 0.00 | 0.00 | 0.00 | 98 | 901.9 |
| 20260831084513 | 71 | 140 | 1.0 | 3.0 | 0.00 | 0.00 | 0.00 | 98 | 901.9 |
| 20260831084013 | 72 | 213 | 0.0 | 6.0 | 0.00 | 0.00 | 0.00 | 98 | 901.8 |
| 20260831084011 | 72 | 209 | 0.0 | 6.0 | 0.00 | 0.00 | 0.00 | 98 | 901.8 |
| 20260831083511 | 71 | 176 | 3.0 | 6.0 | 0.00 | 0.00 | 0.00 | 98 | 901.8 |
| 20260831083412 | 71 | 209 | 3.0 | 6.0 | 0.00 | 0.00 | 0.00 | 98 | 901.8 |
| 20260831083011 | 72 | 101 | 1.0 | 5.0 | 0.00 | 0.00 | 0.00 | 98 | 901.9 |
| 20260831082812 | 71 | 171 | 3.0 | 5.0 | 0.00 | 0.00 | 0.00 | 98 | 901.8 |
| 20260831082511 | 71 | 147 | 3.0 | 5.0 | 0.00 | 0.00 | 0.00 | 98 | 901.8 |
| 20260831082212 | 71 | 132 | 1.0 | 5.0 | 0.00 | 0.00 | 0.00 | 98 | 901.8 |
| 20260831082011 | 70 | 181 | 3.0 | 6.0 | 0.00 | 0.00 | 0.00 | 98 | 901.8 |
| 20260831081612 | 70 | 77 | 3.0 | 6.0 | 0.00 | 0.00 | 0.00 | 98 | 901.8 |
| 20260831081511 | 71 | 108 | 4.0 | 6.0 | 0.00 | 0.00 | 0.00 | 98 | 901.8 |
| 20260831081013 | 70 | 111 | 4.0 | 6.0 | 0.00 | 0.00 | 0.00 | 98 | 901.8 |
| 20260831081011 | 70 | 113 | 4.0 | 6.0 | 0.00 | 0.00 | 0.00 | 98 | 901.8 |
| 20260831080512 | 71 | 81 | 5.0 | 8.0 | 0.00 | 0.00 | 0.00 | 98 | 901.8 |
| 20260831080412 | 71 | 119 | 6.0 | 8.0 | 0.00 | 0.00 | 0.00 | 98 | 901.8 |
| 20260831080011 | 71 | 72 | 4.0 | 5.0 | 0.00 | 0.00 | 0.00 | 98 | 901.8 |
| 20260831075812 | 71 | 89 | 3.0 | 5.0 | 0.00 | 0.00 | 0.00 | 98 | 901.9 |
| 20260831075511 | 71 | 56 | 5.0 | 6.0 | 0.00 | 0.00 | 0.00 | 98 | 901.8 |
| 20260831075212 | 71 | 71 | 3.0 | 5.0 | 0.00 | 0.00 | 0.00 | 98 | 901.8 |
| 20260831075011 | 71 | 97 | 4.0 | 5.0 | 0.00 | 0.00 | 0.00 | 98 | 901.8 |
| 20260831074612 | 71 | 79 | 3.0 | 5.0 | 0.00 | 0.00 | 0.00 | 98 | 901.8 |
| 20260831074511 | 71 | 76 | 2.0 | 5.0 | 0.00 | 0.00 | 0.00 | 98 | 901.8 |
| 20260831074012 | 71 | 81 | 1.0 | 5.0 | 0.00 | 0.00 | 0.00 | 98 | 901.8 |
| 20260831073511 | 71 | 20 | 1.0 | 4.0 | 0.00 | 0.00 | 0.00 | 98 | 901.9 |
| 20260831073412 | 71 | 76 | 1.0 | 3.0 | 0.00 | 0.00 | 0.00 | 98 | 901.9 |
| 20260831073012 | 71 | 88 | 0.0 | 0.0 | 0.00 | 0.00 | 0.00 | 98 | 901.9 |
| 20260831072812 | 71 | 87 | 3.0 | 5.0 | 0.00 | 0.00 | 0.00 | 98 | 901.9 |
| 20260831072510 | 71 | 74 | 3.0 | 5.0 | 0.00 | 0.00 | 0.00 | 98 | 902.0 |
| 20260831072212 | 71 | 55 | 4.0 | 5.0 | 0.00 | 0.00 | 0.00 | 98 | 902.1 |
| 20260831072011 | 70 | 86 | 4.0 | 5.0 | 0.00 | 0.00 | 0.00 | 98 | 902.0 |
| 20260831071612 | 70 | 76 | 4.0 | 5.0 | 0.00 | 0.00 | 0.00 | 98 | 902.1 |
| 20260831071510 | 70 | 71 | 1.0 | 5.0 | 0.00 | 0.00 | 0.00 | 98 | 902.0 |
| 20260831071012 | 70 | 89 | 2.0 | 5.0 | 0.00 | 0.00 | 0.00 | 98 | 902.0 |
| 20260831071010 | 70 | 73 | 2.0 | 5.0 | 0.00 | 0.00 | 0.00 | 98 | 902.0 |
| 20260831070510 | 71 | 77 | 3.0 | 5.0 | 0.00 | 0.00 | 0.00 | 98 | 902.0 |
| 20260831070412 | 71 | 71 | 3.0 | 4.0 | 0.00 | 0.00 | 0.00 | 98 | 902.0 |
| 20260831070010 | 71 | 63 | 2.0 | 4.0 | 0.00 | 0.00 | 0.00 | 98 | 902.0 |
| 20260831065811 | 71 | 72 | 1.0 | 3.0 | 0.00 | 0.00 | 0.00 | 98 | 902.0 |
| 20260831065510 | 71 | 104 | 1.0 | 4.0 | 0.01 | 0.01 | 0.00 | 98 | 902.0 |
| 20260831065212 | 71 | 61 | 1.0 | 4.0 | 0.01 | 0.01 | 0.00 | 98 | 902.0 |
| 20260831065010 | 71 | 83 | 2.0 | 4.0 | 0.01 | 0.01 | 0.00 | 98 | 902.0 |
| 20260831064612 | 71 | 108 | 2.0 | 3.0 | 0.01 | 0.01 | 0.00 | 98 | 902.0 |
| 20260831064510 | 70 | 101 | 2.0 | 3.0 | 0.01 | 0.01 | 0.00 | 98 | 902.0 |
| 20260831064012 | 70 | 77 | 2.0 | 5.0 | 0.03 | 0.03 | 0.00 | 98 | 902.1 |
| 20260831064010 | 70 | 79 | 2.0 | 5.0 | 0.03 | 0.03 | 0.00 | 98 | 902.1 |
| 20260831063510 | 70 | 83 | 2.0 | 5.0 | 0.01 | 0.01 | 0.00 | 98 | 902.2 |
| 20260831063411 | 70 | 85 | 0.0 | 3.0 | 0.00 | 0.00 | 0.00 | 98 | 902.2 |
| 20260831063010 | 70 | 102 | 4.0 | 5.0 | 0.06 | 0.06 | 0.00 | 98 | 902.3 |
| 20260831062812 | 71 | 87 | 3.0 | 5.0 | 0.05 | 0.05 | 0.00 | 98 | 902.3 |
| 20260831062510 | 70 | 82 | 4.0 | 5.0 | 0.03 | 0.03 | 0.00 | 98 | 902.4 |
| 20260831062211 | 71 | 107 | 3.0 | 5.0 | 0.00 | 0.00 | 0.00 | 98 | 902.4 |
| 20260831062010 | 71 | 96 | 0.0 | 2.0 | 0.00 | 0.00 | 0.00 | 98 | 902.4 |
| 20260831061611 | 70 | 74 | 2.0 | 4.0 | 0.01 | 0.01 | 0.00 | 98 | 902.4 |
| 20260831061510 | 70 | 73 | 0.0 | 4.0 | 0.00 | 0.00 | 0.00 | 98 | 902.5 |
| 20260831061012 | 71 | 71 | 2.0 | 6.0 | 0.00 | 0.00 | 0.00 | 98 | 902.5 |
| 20260831061010 | 71 | 68 | 2.0 | 6.0 | 0.00 | 0.00 | 0.00 | 98 | 902.5 |
| 20260831060510 | 71 | 100 | 3.0 | 6.0 | 0.00 | 0.00 | 0.00 | 98 | 902.5 |
| 20260831060411 | 71 | 35 | 2.0 | 6.0 | 0.00 | 0.00 | 0.00 | 98 | 902.5 |
| 20260831060010 | 71 | 55 | 3.0 | 6.0 | 0.00 | 0.00 | 0.00 | 98 | 902.6 |
| 20260831055811 | 71 | 23 | 3.0 | 4.0 | 0.00 | 0.00 | 0.00 | 98 | 902.5 |
| 20260831055510 | 71 | 58 | 0.0 | 4.0 | 0.00 | 0.00 | 0.00 | 98 | 902.5 |
| 20260831055211 | 70 | 65 | 2.0 | 6.0 | 0.00 | 0.00 | 0.00 | 98 | 902.6 |
| 20260831055010 | 70 | 43 | 5.0 | 7.0 | 0.00 | 0.00 | 0.00 | 98 | 902.6 |
| 20260831054611 | 70 | 45 | 5.0 | 6.0 | 0.00 | 0.00 | 0.00 | 98 | 902.6 |
| 20260831054510 | 70 | 65 | 5.0 | 6.0 | 0.00 | 0.00 | 0.00 | 98 | 902.6 |
| 20260831054011 | 70 | 59 | 4.0 | 6.0 | 0.00 | 0.00 | 0.00 | 98 | 902.6 |
| 20260831054009 | 70 | 60 | 4.0 | 6.0 | 0.00 | 0.00 | 0.00 | 98 | 902.7 |
| 20260831053510 | 70 | 45 | 4.0 | 6.0 | 0.00 | 0.00 | 0.00 | 98 | 902.6 |
| 20260831053411 | 70 | 48 | 4.0 | 6.0 | 0.00 | 0.00 | 0.00 | 98 | 902.7 |
| 20260831053009 | 70 | 77 | 4.0 | 7.0 | 0.00 | 0.00 | 0.00 | 98 | 902.7 |
| 20260831052811 | 70 | 66 | 5.0 | 7.0 | 0.00 | 0.00 | 0.00 | 98 | 902.8 |
| 20260831052509 | 70 | 60 | 4.0 | 7.0 | 0.00 | 0.00 | 0.00 | 98 | 902.8 |
| 20260831052211 | 69 | 85 | 5.0 | 7.0 | 0.00 | 0.00 | 0.00 | 97 | 902.9 |
| 20260831052010 | 69 | 63 | 4.0 | 5.0 | 0.00 | 0.00 | 0.00 | 97 | 902.9 |
| 20260831051611 | 70 | 81 | 3.0 | 6.0 | 0.00 | 0.00 | 0.00 | 98 | 903.0 |
| 20260831051011 | 70 | 93 | 6.0 | 9.0 | 0.01 | 0.01 | 0.00 | 98 | 903.1 |
| 20260831051009 | 70 | 77 | 6.0 | 9.0 | 0.01 | 0.01 | 0.00 | 98 | 903.1 |
| 20260831050509 | 70 | 65 | 6.0 | 9.0 | 0.01 | 0.01 | 0.00 | 98 | 903.1 |
| 20260831050411 | 70 | 59 | 6.0 | 9.0 | 0.01 | 0.01 | 0.00 | 98 | 903.1 |
| 20260831045811 | 70 | 51 | 6.0 | 10.0 | 0.05 | 0.05 | 0.00 | 97 | 903.2 |
| 20260831045509 | 69 | 64 | 8.0 | 10.0 | 0.03 | 0.03 | 0.00 | 97 | 903.3 |
| 20260831045211 | 69 | 53 | 8.0 | 10.0 | 0.02 | 0.02 | 0.00 | 97 | 903.3 |
| 20260831045009 | 69 | 46 | 8.0 | 10.0 | 0.01 | 0.01 | 0.00 | 97 | 903.3 |
| 20260831044610 | 70 | 36 | 6.0 | 9.0 | 0.00 | 0.00 | 0.00 | 97 | 903.4 |
| 20260831044011 | 70 | 58 | 4.0 | 9.0 | 0.00 | 0.00 | 0.00 | 97 | 903.5 |
| 20260831044009 | 70 | 60 | 4.0 | 9.0 | 0.00 | 0.00 | 0.00 | 97 | 903.4 |
| 20260831043509 | 70 | 40 | 3.0 | 6.0 | 0.01 | 0.01 | 0.00 | 97 | 903.5 |
| 20260831043410 | 70 | 69 | 3.0 | 6.0 | 0.01 | 0.01 | 0.00 | 97 | 903.5 |
| 20260831043009 | 71 | 43 | 3.0 | 6.0 | 0.01 | 0.01 | 0.00 | 96 | 903.5 |
| 20260831042811 | 71 | 20 | 2.0 | 6.0 | 0.00 | 0.00 | 0.00 | 96 | 903.6 |
| 20260831042509 | 71 | 95 | 1.0 | 4.0 | 0.00 | 0.00 | 0.00 | 96 | 903.6 |
| 20260831042210 | 71 | 32 | 3.0 | 4.0 | 0.00 | 0.00 | 0.00 | 96 | 903.6 |
| 20260831042009 | 71 | 23 | 1.0 | 4.0 | 0.00 | 0.00 | 0.00 | 96 | 903.7 |
| 20260831041610 | 72 | 257 | 0.0 | 0.0 | 0.00 | 0.00 | 0.00 | 96 | 903.7 |
| 20260831041509 | 72 | 46 | 1.0 | 5.0 | 0.00 | 0.00 | 0.00 | 96 | 903.7 |
| 20260831041011 | 72 | 20 | 0.0 | 1.0 | 0.00 | 0.00 | 0.00 | 96 | 903.7 |
| 20260831041009 | 72 | 19 | 0.0 | 1.0 | 0.00 | 0.00 | 0.00 | 96 | 903.7 |
| 20260831040410 | 72 | 360 | 3.0 | 6.0 | 0.02 | 0.02 | 0.00 | 96 | 903.7 |
| 20260831035810 | 72 | 208 | 3.0 | 5.0 | 0.02 | 0.02 | 0.00 | 96 | 903.7 |
| 20260831035509 | 72 | 114 | 2.0 | 4.0 | 0.02 | 0.02 | 0.00 | 96 | 903.7 |
| 20260831035210 | 72 | 200 | 3.0 | 4.0 | 0.02 | 0.02 | 0.00 | 95 | 903.8 |
| 20260831035009 | 72 | 227 | 2.0 | 4.0 | 0.02 | 0.02 | 0.00 | 95 | 903.8 |
| 20260831034610 | 72 | 265 | 1.0 | 3.0 | 0.02 | 0.02 | 0.00 | 95 | 903.8 |
| 20260831034509 | 72 | 266 | 1.0 | 3.0 | 0.02 | 0.02 | 0.00 | 94 | 903.8 |
| 20260831034012 | 72 | 202 | 2.0 | 3.0 | 0.01 | 0.01 | 0.00 | 94 | 903.9 |
| 20260831034010 | 72 | 200 | 2.0 | 3.0 | 0.01 | 0.01 | 0.00 | 94 | 903.9 |
| 20260831033509 | 73 | 245 | 1.0 | 4.0 | 0.00 | 0.00 | 0.00 | 94 | 904.0 |
| 20260831033410 | 72 | 261 | 1.0 | 4.0 | 0.00 | 0.00 | 0.00 | 94 | 904.0 |
| 20260831033009 | 72 | 289 | 2.0 | 4.0 | 0.00 | 0.00 | 0.00 | 94 | 904.0 |
| 20260831032810 | 73 | 246 | 2.0 | 4.0 | 0.00 | 0.00 | 0.00 | 94 | 904.1 |
| 20260831032509 | 73 | 218 | 1.0 | 4.0 | 0.00 | 0.00 | 0.00 | 94 | 904.1 |
| 20260831032210 | 73 | 138 | 1.0 | 4.0 | 0.00 | 0.00 | 0.00 | 94 | 904.2 |
| 20260831032009 | 73 | 226 | 3.0 | 6.0 | 0.00 | 0.00 | 0.00 | 93 | 904.1 |
| 20260831031611 | 73 | 193 | 3.0 | 4.0 | 0.00 | 0.00 | 0.00 | 93 | 904.1 |
| 20260831031508 | 73 | 210 | 1.0 | 4.0 | 0.00 | 0.00 | 0.00 | 93 | 904.1 |
| 20260831031010 | 73 | 177 | 1.0 | 3.0 | 0.00 | 0.00 | 0.00 | 94 | 904.2 |
| 20260831030509 | 73 | 231 | 0.0 | 0.0 | 0.00 | 0.00 | 0.00 | 95 | 904.2 |
| 20260831030008 | 72 | 131 | 2.0 | 5.0 | 0.00 | 0.00 | 0.00 | 94 | 904.2 |
| 20260831025810 | 73 | 104 | 2.0 | 5.0 | 0.00 | 0.00 | 0.00 | 94 | 904.2 |
| 20260831025509 | 73 | 184 | 2.0 | 4.0 | 0.00 | 0.00 | 0.00 | 94 | 904.3 |
| 20260831025210 | 73 | 230 | 1.0 | 4.0 | 0.00 | 0.00 | 0.00 | 94 | 904.2 |
| 20260831025008 | 74 | 224 | 1.0 | 4.0 | 0.00 | 0.00 | 0.00 | 94 | 904.2 |
| 20260831024610 | 74 | 196 | 2.0 | 7.0 | 0.00 | 0.00 | 0.00 | 94 | 904.2 |
| 20260831024509 | 74 | 116 | 2.0 | 7.0 | 0.00 | 0.00 | 0.00 | 94 | 904.2 |
| 20260831024008 | 73 | 360 | 0.0 | 2.0 | 0.00 | 0.00 | 0.00 | 93 | 904.2 |
| 20260831023509 | 73 | 17 | 3.0 | 7.0 | 0.00 | 0.00 | 0.00 | 94 | 904.2 |
| 20260831023409 | 73 | 231 | 3.0 | 7.0 | 0.00 | 0.00 | 0.00 | 94 | 904.1 |
| 20260831023008 | 73 | 38 | 3.0 | 7.0 | 0.00 | 0.00 | 0.00 | 93 | 904.1 |
| 20260831022809 | 73 | 84 | 2.0 | 7.0 | 0.00 | 0.00 | 0.00 | 93 | 904.1 |
| 20260831022509 | 73 | 51 | 4.0 | 7.0 | 0.00 | 0.00 | 0.00 | 93 | 904.1 |
| 20260831022209 | 73 | 39 | 3.0 | 7.0 | 0.00 | 0.00 | 0.00 | 93 | 904.1 |
| 20260831022008 | 73 | 59 | 4.0 | 8.0 | 0.00 | 0.00 | 0.00 | 93 | 904.1 |
| 20260831021609 | 73 | 349 | 2.0 | 8.0 | 0.00 | 0.00 | 0.00 | 92 | 904.1 |
| 20260831021508 | 74 | 335 | 3.0 | 8.0 | 0.00 | 0.00 | 0.00 | 92 | 904.2 |
| 20260831021010 | 75 | 60 | 3.0 | 8.0 | 0.00 | 0.00 | 0.00 | 93 | 904.1 |
| 20260831021008 | 75 | 48 | 3.0 | 8.0 | 0.00 | 0.00 | 0.00 | 93 | 904.1 |
| 20260831020508 | 73 | 8 | 3.0 | 8.0 | 0.00 | 0.00 | 0.00 | 93 | 904.1 |
| 20260831020409 | 73 | 47 | 2.0 | 8.0 | 0.00 | 0.00 | 0.00 | 94 | 904.0 |
| 20260831020009 | 73 | 48 | 3.0 | 6.0 | 0.00 | 0.00 | 0.00 | 95 | 903.9 |
| 20260831015809 | 72 | 12 | 2.0 | 6.0 | 0.00 | 0.00 | 0.00 | 95 | 903.9 |
| 20260831015509 | 72 | 32 | 5.0 | 8.0 | 0.00 | 0.00 | 0.00 | 95 | 903.9 |
| 20260831015209 | 72 | 55 | 5.0 | 9.0 | 0.00 | 0.00 | 0.00 | 96 | 903.9 |
| 20260831015008 | 71 | 47 | 5.0 | 9.0 | 0.00 | 0.00 | 0.00 | 97 | 903.9 |
| 20260831014609 | 71 | 34 | 6.0 | 9.0 | 0.00 | 0.00 | 0.00 | 96 | 904.0 |
| 20260831014509 | 71 | 33 | 5.0 | 9.0 | 0.00 | 0.00 | 0.00 | 96 | 904.0 |
| 20260831014009 | 71 | 5 | 5.0 | 9.0 | 0.00 | 0.00 | 0.00 | 95 | 904.0 |
| 20260831013508 | 71 | 58 | 4.0 | 7.0 | 0.00 | 0.00 | 0.00 | 96 | 904.0 |
| 20260831013409 | 71 | 20 | 4.0 | 6.0 | 0.00 | 0.00 | 0.00 | 95 | 904.0 |
| 20260831013008 | 71 | 31 | 4.0 | 6.0 | 0.00 | 0.00 | 0.00 | 95 | 904.0 |
| 20260831012809 | 71 | 29 | 4.0 | 6.0 | 0.00 | 0.00 | 0.00 | 95 | 904.0 |
| 20260831012509 | 71 | 40 | 3.0 | 5.0 | 0.00 | 0.00 | 0.00 | 95 | 904.0 |
| 20260831012209 | 71 | 42 | 3.0 | 5.0 | 0.00 | 0.00 | 0.00 | 95 | 904.1 |
| 20260831012008 | 71 | 15 | 2.0 | 5.0 | 0.00 | 0.00 | 0.00 | 94 | 904.0 |
| 20260831011609 | 72 | 36 | 2.0 | 5.0 | 0.00 | 0.00 | 0.00 | 95 | 904.1 |
| 20260831011508 | 72 | 56 | 2.0 | 6.0 | 0.00 | 0.00 | 0.00 | 95 | 904.1 |
| 20260831011009 | 72 | 32 | 3.0 | 6.0 | 0.00 | 0.00 | 0.00 | 95 | 904.1 |
| 20260831010508 | 72 | 64 | 3.0 | 6.0 | 0.00 | 0.00 | 0.00 | 94 | 904.1 |
| 20260831010409 | 72 | 90 | 4.0 | 6.0 | 0.00 | 0.00 | 0.00 | 95 | 904.1 |
| 20260831010007 | 71 | 76 | 4.0 | 6.0 | 0.00 | 0.00 | 0.00 | 96 | 904.1 |
| 20260831005809 | 71 | 90 | 3.0 | 7.0 | 0.00 | 0.00 | 0.00 | 97 | 904.1 |
| 20260831005508 | 71 | 106 | 3.0 | 8.0 | 0.00 | 0.00 | 0.00 | 96 | 904.1 |
| 20260831005209 | 71 | 77 | 4.0 | 8.0 | 0.00 | 0.00 | 0.00 | 96 | 904.1 |
| 20260831005008 | 71 | 111 | 5.0 | 8.0 | 0.00 | 0.00 | 0.00 | 96 | 904.1 |
| 20260831004609 | 71 | 79 | 5.0 | 8.0 | 0.00 | 0.00 | 0.00 | 95 | 904.1 |
| 20260831004509 | 71 | 74 | 4.0 | 6.0 | 0.00 | 0.00 | 0.00 | 96 | 904.1 |
| 20260831004009 | 71 | 81 | 0.0 | 3.0 | 0.00 | 0.00 | 0.00 | 95 | 904.1 |
| 20260831003509 | 71 | 94 | 5.0 | 7.0 | 0.00 | 0.00 | 0.00 | 95 | 904.1 |
| 20260831003409 | 71 | 97 | 4.0 | 7.0 | 0.00 | 0.00 | 0.00 | 95 | 904.1 |
| 20260831003007 | 71 | 41 | 1.0 | 4.0 | 0.00 | 0.00 | 0.00 | 95 | 904.1 |
| 20260831002809 | 71 | 72 | 2.0 | 4.0 | 0.00 | 0.00 | 0.00 | 96 | 904.2 |
| 20260831002507 | 70 | 9 | 0.0 | 2.0 | 0.00 | 0.00 | 0.00 | 96 | 904.1 |
| 20260831002209 | 70 | 33 | 4.0 | 7.0 | 0.00 | 0.00 | 0.00 | 96 | 904.1 |
| 20260831002007 | 70 | 48 | 4.0 | 7.0 | 0.00 | 0.00 | 0.00 | 96 | 904.1 |
| 20260831001608 | 70 | 2 | 5.0 | 7.0 | 0.00 | 0.00 | 0.00 | 96 | 904.1 |
| 20260831001508 | 70 | 25 | 4.0 | 7.0 | 0.00 | 0.00 | 0.00 | 96 | 904.0 |
| 20260831001009 | 70 | 22 | 5.0 | 7.0 | 0.00 | 0.00 | 0.00 | 96 | 904.1 |
| 20260831001007 | 70 | 12 | 5.0 | 7.0 | 0.00 | 0.00 | 0.00 | 96 | 904.1 |
| 20260831000507 | 70 | 4 | 5.0 | 7.0 | 0.00 | 0.00 | 0.00 | 96 | 904.0 |
| 20260831000410 | 70 | 30 | 5.0 | 6.0 | 0.00 | 0.00 | 0.00 | 95 | 904.0 |
| 20260830235808 | 70 | 360 | 5.0 | 6.0 | 0.00 | 0.00 | 0.00 | 95 | 904.0 |
| 20260830235507 | 70 | 360 | 4.0 | 6.0 | 0.00 | 0.00 | 0.00 | 94 | 904.0 |
| 20260830235208 | 70 | 355 | 5.0 | 6.0 | 0.00 | 0.00 | 0.00 | 94 | 903.9 |
| 20260830235007 | 70 | 21 | 5.0 | 6.0 | 0.00 | 0.00 | 0.00 | 94 | 904.0 |
| 20260830234608 | 70 | 359 | 1.0 | 3.0 | 0.00 | 0.00 | 0.00 | 95 | 904.0 |
| 20260830234507 | 70 | 352 | 0.0 | 1.0 | 0.00 | 0.00 | 0.00 | 95 | 904.0 |
| 20260830234008 | 70 | 319 | 0.0 | 6.0 | 0.00 | 0.00 | 0.00 | 95 | 903.9 |
| 20260830233507 | 70 | 227 | 3.0 | 6.0 | 0.00 | 0.00 | 0.00 | 95 | 903.9 |
| 20260830233408 | 70 | 349 | 4.0 | 6.0 | 0.00 | 0.00 | 0.00 | 94 | 903.8 |
| 20260830232808 | 71 | 348 | 3.0 | 4.0 | 0.00 | 0.00 | 0.00 | 94 | 903.7 |
| 20260830232507 | 71 | 358 | 2.0 | 4.0 | 0.00 | 0.00 | 0.00 | 93 | 903.7 |
| 20260830232208 | 71 | 20 | 0.0 | 2.0 | 0.00 | 0.00 | 0.00 | 94 | 903.7 |
| 20260830232006 | 71 | 282 | 0.0 | 3.0 | 0.00 | 0.00 | 0.00 | 94 | 903.7 |
| 20260830231608 | 71 | 245 | 1.0 | 5.0 | 0.00 | 0.00 | 0.00 | 94 | 903.6 |
| 20260830231508 | 71 | 245 | 1.0 | 5.0 | 0.00 | 0.00 | 0.00 | 94 | 903.6 |
| 20260830231008 | 71 | 360 | 3.0 | 6.0 | 0.00 | 0.00 | 0.00 | 94 | 903.6 |
| 20260830230506 | 71 | 12 | 3.0 | 6.0 | 0.00 | 0.00 | 0.00 | 94 | 903.5 |
| 20260830225808 | 71 | 30 | 4.0 | 6.0 | 0.00 | 0.00 | 0.00 | 94 | 903.5 |
| 20260830225506 | 71 | 13 | 5.0 | 6.0 | 0.00 | 0.00 | 0.00 | 94 | 903.5 |
| 20260830225208 | 71 | 6 | 4.0 | 5.0 | 0.00 | 0.00 | 0.00 | 94 | 903.4 |
| 20260830225006 | 71 | 6 | 4.0 | 5.0 | 0.00 | 0.00 | 0.00 | 94 | 903.4 |
| 20260830224608 | 71 | 4 | 3.0 | 5.0 | 0.00 | 0.00 | 0.00 | 94 | 903.4 |
| 20260830224506 | 71 | 360 | 3.0 | 4.0 | 0.00 | 0.00 | 0.00 | 94 | 903.4 |
| 20260830224008 | 70 | 360 | 1.0 | 4.0 | 0.00 | 0.00 | 0.00 | 95 | 903.3 |
| 20260830224006 | 70 | 355 | 1.0 | 4.0 | 0.00 | 0.00 | 0.00 | 95 | 903.3 |
| 20260830223506 | 70 | 4 | 6.0 | 7.0 | 0.00 | 0.00 | 0.00 | 96 | 903.2 |
| 20260830223408 | 70 | 3 | 6.0 | 7.0 | 0.00 | 0.00 | 0.00 | 96 | 903.2 |
| 20260830223006 | 69 | 15 | 6.0 | 7.0 | 0.00 | 0.00 | 0.00 | 96 | 903.2 |
| 20260830222808 | 69 | 25 | 3.0 | 7.0 | 0.00 | 0.00 | 0.00 | 96 | 903.1 |
| 20260830222507 | 70 | 26 | 6.0 | 8.0 | 0.00 | 0.00 | 0.00 | 96 | 903.1 |
| 20260830222208 | 70 | 357 | 6.0 | 8.0 | 0.00 | 0.00 | 0.00 | 95 | 903.1 |
| 20260830222008 | 70 | 33 | 6.0 | 7.0 | 0.00 | 0.00 | 0.00 | 95 | 903.1 |
| 20260830221607 | 70 | 6 | 5.0 | 7.0 | 0.00 | 0.00 | 0.00 | 95 | 903.1 |
| 20260830221506 | 70 | 360 | 5.0 | 7.0 | 0.00 | 0.00 | 0.00 | 95 | 903.1 |
| 20260830221008 | 70 | 12 | 5.0 | 7.0 | 0.00 | 0.00 | 0.00 | 95 | 903.0 |
| 20260830221006 | 70 | 10 | 5.0 | 7.0 | 0.00 | 0.00 | 0.00 | 95 | 903.0 |
| 20260830220506 | 70 | 3 | 6.0 | 8.0 | 0.00 | 0.00 | 0.00 | 95 | 903.1 |
| 20260830220407 | 70 | 360 | 6.0 | 9.0 | 0.00 | 0.00 | 0.00 | 95 | 903.0 |
| 20260830220006 | 70 | 2 | 7.0 | 9.0 | 0.00 | 0.00 | 0.00 | 95 | 902.9 |
| 20260830215807 | 70 | 1 | 7.0 | 9.0 | 0.00 | 0.00 | 0.00 | 95 | 903.0 |
| 20260830215506 | 70 | 360 | 6.0 | 9.0 | 0.00 | 0.00 | 0.00 | 95 | 902.9 |
| 20260830215207 | 70 | 354 | 6.0 | 10.0 | 0.00 | 0.00 | 0.00 | 96 | 902.9 |
| 20260830215006 | 70 | 342 | 7.0 | 10.0 | 0.00 | 0.00 | 0.00 | 96 | 902.8 |
| 20260830214607 | 70 | 360 | 6.0 | 10.0 | 0.00 | 0.00 | 0.00 | 96 | 902.9 |
| 20260830214506 | 70 | 358 | 7.0 | 10.0 | 0.00 | 0.00 | 0.00 | 96 | 902.9 |